1202 visiteurs
Prévisions de votre ville :
Vigilance : 4 départements Mise à jour le 06/12/2019 à 16:10 - Voir la carte

Paris Roissy CDG (95380) le 06/12/2019 à 17:00 Choisir station

5.9°C 93 % SSO Rafales 22 km/h
Vit. moyenne 13 kmh/h

Relevés météo quotidiens pour la station de :

UTC
S: Synop
M: Metar
Loc T°C
(°C)
Td
(°C)
HR
(%)
Vis
(km)
Néb
(octa)
Vent
(km/h)
Pression
(mb)
Précipitations
(mm)
Temps
              MOY
10 min
DIR RAF 1h MESURE VAR SUR 3h    
S 00 h 02h 22.3 14.9 63 35 - 6 11 1021.2 +0.2/3h 0.0/6h - 0.0/3h -
S 01 h 03h 22.1 15.0 64 40 - 9 13 1021.1 -0.3/3h 0.0/1h -
S 02 h 04h 21.6 15.0 66 35 - 4 6 1021.0 -0.4/3h 0.0/1h -
S 03 h 05h 21.3 15.4 69 30 - 2 6 1020.9 -0.4/3h 0.0/3h -
S 04 h 06h 21.7 15.5 68 28 - 4 6 1021.2 0.0/3h 0.0/1h -
S 05 h 07h 22.6 17.3 72 21 - 6 9 1021.4 +0.5/3h 0.0/1h -
S 06 h 08h 26.9 17.9 58 18 - 2 7 1021.6 +0.8/3h 0.0/12h - 0.0/3h - 0.0/24h -
S 07 h 09h 27.3 18.0 57 18 - 6 9 1022.1 +1.0/3h 0.0/1h -
S 08 h 10h 28.4 19.3 58 15 - 2 7 1022.3 +0.9/3h 0.0/1h -
S 09 h 11h 32.9 17.9 41 16 - 9 13 1021.9 +0.4/3h 0.0/3h -
S 10 h 12h 33.6 16.9 37 17 - 11 19 1021.7 -0.3/3h 0.0/1h -
S 11 h 13h 34.9 17.2 35 19 - 15 22 1021.4 -0.8/3h 0.0/1h -
S 12 h 14h 36.7 15.8 29 20 - 15 35 1021.1 -0.8/3h 0.0/6h - 0.0/3h -
S 13 h 15h 36.6 16.7 31 20 - 11 19 1020.6 -1.1/3h 0.0/1h -
S 14 h 16h 36.1 16.3 31 19 - 26 35 1020.3 -1.1/3h 0.0/1h -
S 15 h 17h 35.3 15.6 31 19 - 26 39 1020.2 -0.9/3h 0.0/3h -
S 16 h 18h 34.7 15.6 32 19 - 24 43 1020.0 -0.6/3h 0.0/1h -
S 17 h 19h 33.9 15.4 33 23 - 11 20 1020.1 -0.2/3h 0.0/1h -
S 18 h 20h 32.7 14.8 34 30 - 6 17 1020.3 +0.1/3h 0.0/12h - 0.0/3h -
S 19 h 21h 30.1 15.0 40 45 - 9 20 1020.5 +0.5/3h 0.0/1h -
S 20 h 22h 28.1 19.1 58 50 - 11 17 1021.1 +0.9/3h 0.0/1h -
S 21 h 23h 27.4 19.5 62 40 - 11 17 1021.5 +1.1/3h 0.0/3h -
S 22 h 00h 26.6 19.0 63 25 - 7 13 1021.6 +1.0/3h 0.0/1h -
S 23 h 01h 25.6 16.2 56 26 - 6 11 1021.6 +0.5/3h 0.0/1h -
evolution des temperatures
cumul des precipitations
vent moyen et rafales
pression atmospherique

Un tiret (-) signifie que les données ne sont pas disponibles.

Passez la souris sur les pictos temps pour avoir plus de précisions. Passez les flèches sur l'icône de la direction du vent pour voir la direction précise en degrés.

Les données de l'heure en cours sont disponibles à partir de H+15 minutes.


S signifie station Synop, plus complète qu'une station Metar (M). Il y a +1h de différence entre l'heure UTC et l'heure légale en hiver et +2h en été.

Td est la mesure du point de rosée.

HR est l'humidité relative/p>

Vis est la visibilité

Néb est la nébulosité du ciel (couverture nuageuse) exprimée en octas (de 0/8 à 8/8).

Vent moy 10 min donne le vent moyen sur les 10 minutes qui précèdent le relevé.

Vent raf 1h donne la rafale maximale mesurée dans l'heure qui précède le relevé.


Les données les plus anciennes remontent à avril 2014.

Les données présentées sur cette page proviennent des stations météo officielles. Les relevés sont effectués aux normes en vigueur (anémomètre à 10m de haut, thermomètre sous abri normalisé à 2m du sol...)

Météo 60 décline toute responsabilité en cas d'absence de données, d'erreurs, de mauvaise utilisation ou interprétation et n'est pas habilité à fournir des certificats intempéries.